Time,TemperatureF,DewpointF,PressureIn,WindDirection,WindDirectionDegrees,WindSpeedMPH,WindSpeedGustMPH,Humidity,HourlyPrecipIn,Conditions,Clouds,dailyrainin,SoftwareType,DateUTC
2013-01-08 00:04:00,74.0,70.0,29.24,NNE,20,1.0,5.0,87,0.00,,,0.00,,2013-01-08 05:04:00,
2013-01-08 00:12:00,74.0,70.0,29.24,NNE,20,1.0,5.0,87,0.00,,,0.00,,2013-01-08 05:12:00,
2013-01-08 00:22:00,74.0,70.0,29.24,NNE,20,1.0,5.0,87,0.00,,,0.00,,2013-01-08 05:22:00,
2013-01-08 00:33:00,74.0,70.0,29.24,ENE,76,2.0,9.0,88,0.00,,,0.00,,2013-01-08 05:33:00,
2013-01-08 00:43:00,74.0,70.0,29.24,ENE,76,2.0,9.0,88,0.00,,,0.00,,2013-01-08 05:43:00,
2013-01-08 00:53:00,74.0,70.0,29.24,ENE,76,2.0,9.0,88,0.00,,,0.00,,2013-01-08 05:53:00,
2013-01-08 01:02:00,74.0,70.0,29.24,ENE,78,2.0,5.0,88,0.00,,,0.00,,2013-01-08 06:02:00,
2013-01-08 01:12:00,74.0,70.0,29.24,ENE,78,2.0,5.0,88,0.00,,,0.00,,2013-01-08 06:12:00,
2013-01-08 01:22:00,74.0,70.0,29.24,ENE,78,2.0,5.0,88,0.00,,,0.00,,2013-01-08 06:22:00,
2013-01-08 01:33:00,74.0,70.0,29.24,ENE,69,3.0,9.0,87,0.00,,,0.00,,2013-01-08 06:33:00,
2013-01-08 01:42:00,74.0,70.0,29.24,ENE,69,3.0,9.0,87,0.00,,,0.00,,2013-01-08 06:42:00,
2013-01-08 01:53:00,74.0,70.0,29.24,ENE,69,3.0,9.0,87,0.00,,,0.00,,2013-01-08 06:53:00,
2013-01-08 02:02:00,74.0,71.0,29.24,ENE,75,4.0,12.0,89,0.00,,,0.00,,2013-01-08 07:02:00,
2013-01-08 02:12:00,74.0,71.0,29.24,ENE,75,4.0,12.0,89,0.00,,,0.00,,2013-01-08 07:12:00,
2013-01-08 02:22:00,74.0,71.0,29.24,ENE,75,4.0,12.0,89,0.00,,,0.00,,2013-01-08 07:22:00,
2013-01-08 02:32:00,74.0,71.0,29.24,NE,40,2.0,12.0,90,0.01,,,0.01,,2013-01-08 07:32:00,
2013-01-08 02:42:00,74.0,71.0,29.24,NE,40,2.0,12.0,90,0.01,,,0.01,,2013-01-08 07:42:00,
2013-01-08 02:52:00,74.0,71.0,29.24,NE,40,2.0,12.0,90,0.01,,,0.01,,2013-01-08 07:52:00,
2013-01-08 03:02:00,74.0,71.0,29.24,East,80,5.0,10.0,90,0.01,,,0.01,,2013-01-08 08:02:00,
2013-01-08 03:12:00,74.0,71.0,29.24,East,80,5.0,10.0,90,0.01,,,0.01,,2013-01-08 08:12:00,
2013-01-08 03:22:00,74.0,71.0,29.24,East,80,5.0,10.0,90,0.01,,,0.01,,2013-01-08 08:22:00,
2013-01-08 03:32:00,74.0,70.0,29.24,NE,54,5.0,10.0,88,0.00,,,0.01,,2013-01-08 08:32:00,
2013-01-08 03:42:00,74.0,70.0,29.24,NE,54,5.0,10.0,88,0.00,,,0.01,,2013-01-08 08:42:00,
2013-01-08 03:53:00,74.0,70.0,29.24,NE,54,5.0,10.0,88,0.00,,,0.01,,2013-01-08 08:53:00,
2013-01-08 04:02:00,74.0,70.0,29.24,East,85,6.0,13.0,87,0.00,,,0.01,,2013-01-08 09:02:00,
2013-01-08 04:12:00,74.0,70.0,29.24,East,85,6.0,13.0,87,0.00,,,0.01,,2013-01-08 09:12:00,
2013-01-08 04:22:00,74.0,70.0,29.24,East,85,6.0,13.0,87,0.00,,,0.01,,2013-01-08 09:22:00,
2013-01-08 04:32:00,74.0,69.0,29.24,ESE,111,4.0,10.0,85,0.00,,,0.01,,2013-01-08 09:32:00,
2013-01-08 04:42:00,74.0,69.0,29.24,ESE,111,4.0,10.0,85,0.00,,,0.01,,2013-01-08 09:42:00,
2013-01-08 04:53:00,74.0,69.0,29.24,ESE,111,4.0,10.0,85,0.00,,,0.01,,2013-01-08 09:53:00,
2013-01-08 05:02:00,74.0,70.0,29.24,East,96,3.0,9.0,86,0.00,,,0.01,,2013-01-08 10:02:00,
2013-01-08 05:12:00,74.0,70.0,29.24,East,96,3.0,9.0,86,0.00,,,0.01,,2013-01-08 10:12:00,
2013-01-08 05:22:00,74.0,70.0,29.24,East,96,3.0,9.0,86,0.00,,,0.01,,2013-01-08 10:22:00,
2013-01-08 05:33:00,74.0,70.0,29.24,East,94,3.0,7.0,87,0.00,,,0.01,,2013-01-08 10:33:00,
2013-01-08 05:42:00,74.0,70.0,29.24,East,94,3.0,7.0,87,0.00,,,0.01,,2013-01-08 10:42:00,
2013-01-08 05:53:00,74.0,70.0,29.24,East,94,3.0,7.0,87,0.00,,,0.01,,2013-01-08 10:53:00,
2013-01-08 06:02:00,74.0,70.0,29.24,East,80,2.0,7.0,88,0.00,,,0.01,,2013-01-08 11:02:00,
2013-01-08 06:12:00,74.0,70.0,29.24,East,80,2.0,7.0,88,0.00,,,0.01,,2013-01-08 11:12:00,
2013-01-08 06:23:00,74.0,70.0,29.24,East,80,2.0,7.0,88,0.00,,,0.01,,2013-01-08 11:23:00,
2013-01-08 06:33:00,74.0,71.0,29.24,NE,54,2.0,6.0,89,0.00,,,0.01,,2013-01-08 11:33:00,
2013-01-08 06:42:00,74.0,71.0,29.24,NE,54,2.0,6.0,89,0.00,,,0.01,,2013-01-08 11:42:00,
2013-01-08 06:53:00,74.0,71.0,29.24,NE,54,2.0,6.0,89,0.00,,,0.01,,2013-01-08 11:53:00,
2013-01-08 07:03:00,74.0,71.0,29.24,NNE,28,2.0,6.0,89,0.00,,,0.01,,2013-01-08 12:03:00,
2013-01-08 07:12:00,74.0,71.0,29.24,NNE,28,2.0,6.0,89,0.00,,,0.01,,2013-01-08 12:12:00,
2013-01-08 07:22:00,74.0,71.0,29.24,NNE,28,2.0,6.0,89,0.00,,,0.01,,2013-01-08 12:22:00,
2013-01-08 07:33:00,74.0,70.0,29.24,ENE,63,2.0,6.0,88,0.00,,,0.01,,2013-01-08 12:33:00,
2013-01-08 07:42:00,74.0,70.0,29.24,ENE,63,2.0,6.0,88,0.00,,,0.01,,2013-01-08 12:42:00,
2013-01-08 07:53:00,74.0,70.0,29.24,ENE,63,2.0,6.0,88,0.00,,,0.01,,2013-01-08 12:53:00,
2013-01-08 08:03:00,74.0,70.0,29.24,ESE,111,2.0,10.0,87,0.00,,,0.01,,2013-01-08 13:03:00,
2013-01-08 08:12:00,74.0,70.0,29.24,ESE,111,2.0,10.0,87,0.00,,,0.01,,2013-01-08 13:12:00,
2013-01-08 08:22:00,74.0,70.0,29.24,ESE,111,2.0,10.0,87,0.00,,,0.01,,2013-01-08 13:22:00,
2013-01-08 08:33:00,75.0,71.0,29.24,ENE,71,2.0,7.0,87,0.00,,,0.01,,2013-01-08 13:33:00,
2013-01-08 08:43:00,75.0,71.0,29.24,ENE,71,2.0,7.0,87,0.00,,,0.01,,2013-01-08 13:43:00,
2013-01-08 08:53:00,75.0,71.0,29.24,ENE,71,2.0,7.0,87,0.00,,,0.01,,2013-01-08 13:53:00,
2013-01-08 09:02:00,77.0,71.0,29.24,East,87,5.0,13.0,82,0.01,,,0.02,,2013-01-08 14:02:00,
2013-01-08 09:12:00,77.0,71.0,29.24,East,87,5.0,13.0,82,0.01,,,0.02,,2013-01-08 14:12:00,
2013-01-08 09:23:00,77.0,71.0,29.24,East,87,5.0,13.0,82,0.01,,,0.02,,2013-01-08 14:23:00,
2013-01-08 09:33:00,77.0,71.0,29.24,East,82,4.0,8.0,82,0.01,,,0.02,,2013-01-08 14:33:00,
2013-01-08 09:43:00,77.0,71.0,29.24,East,82,4.0,8.0,82,0.01,,,0.02,,2013-01-08 14:43:00,
2013-01-08 09:53:00,77.0,71.0,29.24,East,82,4.0,8.0,82,0.01,,,0.02,,2013-01-08 14:53:00,
2013-01-08 10:03:00,78.0,71.0,29.24,NE,43,2.0,10.0,80,0.00,,,0.02,,2013-01-08 15:03:00,
2013-01-08 10:12:00,78.0,71.0,29.24,NE,43,2.0,10.0,80,0.00,,,0.02,,2013-01-08 15:12:00,
2013-01-08 10:23:00,78.0,71.0,29.24,NE,43,2.0,10.0,80,0.00,,,0.02,,2013-01-08 15:23:00,
2013-01-08 10:33:00,77.0,71.0,29.24,NE,56,3.0,12.0,83,0.00,,,0.02,,2013-01-08 15:33:00,
2013-01-08 10:43:00,77.0,71.0,29.24,NE,56,3.0,12.0,83,0.00,,,0.02,,2013-01-08 15:43:00,
2013-01-08 10:53:00,77.0,71.0,29.24,NE,56,3.0,12.0,83,0.00,,,0.02,,2013-01-08 15:53:00,
2013-01-08 11:03:00,77.0,70.0,29.24,NE,55,3.0,12.0,79,0.00,,,0.02,,2013-01-08 16:03:00,
2013-01-08 11:12:00,77.0,70.0,29.24,NE,55,3.0,12.0,79,0.00,,,0.02,,2013-01-08 16:12:00,
2013-01-08 11:23:00,77.0,70.0,29.24,NE,55,3.0,12.0,79,0.00,,,0.02,,2013-01-08 16:23:00,
2013-01-08 11:34:00,77.0,70.0,29.24,East,87,5.0,13.0,78,0.00,,,0.02,,2013-01-08 16:34:00,
2013-01-08 11:42:00,77.0,70.0,29.24,East,87,5.0,13.0,78,0.00,,,0.02,,2013-01-08 16:42:00,
2013-01-08 11:53:00,77.0,70.0,29.24,East,87,5.0,13.0,78,0.00,,,0.02,,2013-01-08 16:53:00,
2013-01-08 12:03:00,76.0,72.0,29.24,East,86,6.0,15.0,86,0.00,,,0.02,,2013-01-08 17:03:00,
2013-01-08 12:13:00,76.0,72.0,29.24,East,86,6.0,15.0,86,0.00,,,0.02,,2013-01-08 17:13:00,
2013-01-08 12:23:00,76.0,72.0,29.24,East,86,6.0,15.0,86,0.00,,,0.02,,2013-01-08 17:23:00,
2013-01-08 12:34:00,79.0,73.0,29.24,East,86,8.0,15.0,82,0.00,,,0.02,,2013-01-08 17:34:00,
2013-01-08 12:43:00,79.0,73.0,29.24,East,86,8.0,15.0,82,0.00,,,0.02,,2013-01-08 17:43:00,
2013-01-08 12:54:00,79.0,73.0,29.24,East,86,8.0,15.0,82,0.00,,,0.02,,2013-01-08 17:54:00,
2013-01-08 13:04:00,79.0,73.0,29.24,NE,51,9.0,15.0,81,0.00,,,0.02,,2013-01-08 18:04:00,
2013-01-08 13:13:00,79.0,73.0,29.24,NE,51,9.0,15.0,81,0.00,,,0.02,,2013-01-08 18:13:00,
2013-01-08 13:23:00,79.0,73.0,29.24,NE,51,9.0,15.0,81,0.00,,,0.02,,2013-01-08 18:23:00,
2013-01-08 13:33:00,79.0,70.0,29.24,East,88,7.0,15.0,75,0.00,,,0.02,,2013-01-08 18:33:00,
2013-01-08 13:43:00,79.0,70.0,29.24,East,88,7.0,15.0,75,0.00,,,0.02,,2013-01-08 18:43:00,
2013-01-08 13:53:00,79.0,70.0,29.24,East,88,7.0,15.0,75,0.00,,,0.02,,2013-01-08 18:53:00,
2013-01-08 14:03:00,79.0,71.0,29.24,ENE,70,7.0,17.0,76,0.00,,,0.02,,2013-01-08 19:03:00,
2013-01-08 14:12:00,79.0,71.0,29.24,ENE,70,7.0,17.0,76,0.00,,,0.02,,2013-01-08 19:12:00,
2013-01-08 14:23:00,79.0,71.0,29.24,ENE,70,7.0,17.0,76,0.00,,,0.02,,2013-01-08 19:23:00,
2013-01-08 14:33:00,79.0,72.0,29.24,East,87,10.0,17.0,80,0.00,,,0.02,,2013-01-08 19:33:00,
2013-01-08 14:42:00,79.0,72.0,29.24,East,87,10.0,17.0,80,0.00,,,0.02,,2013-01-08 19:42:00,
2013-01-08 14:53:00,79.0,72.0,29.24,East,87,10.0,17.0,80,0.00,,,0.02,,2013-01-08 19:53:00,
2013-01-08 15:03:00,79.0,72.0,29.24,East,98,8.0,15.0,80,0.00,,,0.02,,2013-01-08 20:03:00,
2013-01-08 15:12:00,79.0,72.0,29.24,East,98,8.0,15.0,80,0.00,,,0.02,,2013-01-08 20:12:00,
2013-01-08 15:23:00,79.0,72.0,29.24,East,98,8.0,15.0,80,0.00,,,0.02,,2013-01-08 20:23:00,
2013-01-08 15:33:00,79.0,72.0,29.24,ENE,78,9.0,15.0,80,0.00,,,0.02,,2013-01-08 20:33:00,
2013-01-08 15:43:00,79.0,72.0,29.24,ENE,78,9.0,15.0,80,0.00,,,0.02,,2013-01-08 20:43:00,
2013-01-08 15:54:00,79.0,72.0,29.24,ENE,78,9.0,15.0,80,0.00,,,0.02,,2013-01-08 20:54:00,
2013-01-08 16:03:00,79.0,72.0,29.24,ENE,77,11.0,16.0,80,0.00,,,0.02,,2013-01-08 21:03:00,
2013-01-08 16:13:00,79.0,72.0,29.24,ENE,77,11.0,16.0,80,0.00,,,0.02,,2013-01-08 21:13:00,
2013-01-08 16:23:00,79.0,72.0,29.24,ENE,77,11.0,16.0,80,0.00,,,0.02,,2013-01-08 21:23:00,
2013-01-08 16:33:00,78.0,72.0,29.24,East,95,9.0,20.0,81,0.00,,,0.02,,2013-01-08 21:33:00,
2013-01-08 16:43:00,78.0,72.0,29.24,East,95,9.0,20.0,81,0.00,,,0.02,,2013-01-08 21:43:00,
2013-01-08 16:53:00,78.0,72.0,29.24,East,95,9.0,20.0,81,0.00,,,0.02,,2013-01-08 21:53:00,
2013-01-08 17:03:00,78.0,72.0,29.24,East,88,7.0,14.0,81,0.00,,,0.02,,2013-01-08 22:03:00,
2013-01-08 17:12:00,78.0,72.0,29.24,East,88,7.0,14.0,81,0.00,,,0.02,,2013-01-08 22:12:00,
2013-01-08 17:23:00,78.0,72.0,29.24,East,88,7.0,14.0,81,0.00,,,0.02,,2013-01-08 22:23:00,
2013-01-08 17:33:00,78.0,72.0,29.24,ENE,75,6.0,14.0,83,0.00,,,0.02,,2013-01-08 22:33:00,
2013-01-08 17:43:00,78.0,72.0,29.24,ENE,75,6.0,14.0,83,0.00,,,0.02,,2013-01-08 22:43:00,
2013-01-08 17:53:00,78.0,72.0,29.24,ENE,75,6.0,14.0,83,0.00,,,0.02,,2013-01-08 22:53:00,
2013-01-08 18:03:00,77.0,72.0,29.24,ENE,68,4.0,12.0,85,0.00,,,0.02,,2013-01-08 23:03:00,
2013-01-08 18:13:00,77.0,72.0,29.24,ENE,68,4.0,12.0,85,0.00,,,0.02,,2013-01-08 23:13:00,
2013-01-08 18:23:00,77.0,72.0,29.24,ENE,68,4.0,12.0,85,0.00,,,0.02,,2013-01-08 23:23:00,
2013-01-08 18:33:00,76.0,72.0,29.24,East,81,5.0,10.0,87,0.00,,,0.02,,2013-01-08 23:33:00,
2013-01-08 18:43:00,76.0,72.0,29.24,East,81,5.0,10.0,87,0.00,,,0.02,,2013-01-08 23:43:00,
2013-01-08 18:53:00,76.0,72.0,29.24,East,81,5.0,10.0,87,0.00,,,0.02,,2013-01-08 23:53:00,
2013-01-08 19:03:00,76.0,72.0,29.24,East,81,3.0,10.0,88,0.00,,,0.02,,2013-01-09 00:03:00,
2013-01-08 19:12:00,76.0,72.0,29.24,East,81,3.0,10.0,88,0.00,,,0.02,,2013-01-09 00:12:00,
2013-01-08 19:22:00,76.0,72.0,29.24,East,81,3.0,10.0,88,0.00,,,0.02,,2013-01-09 00:22:00,
2013-01-08 19:33:00,76.0,73.0,29.24,East,80,3.0,8.0,89,0.00,,,0.02,,2013-01-09 00:33:00,
2013-01-08 19:43:00,76.0,73.0,29.24,East,80,3.0,8.0,89,0.00,,,0.02,,2013-01-09 00:43:00,
2013-01-08 19:53:00,76.0,73.0,29.24,East,80,3.0,8.0,89,0.00,,,0.02,,2013-01-09 00:53:00,
2013-01-08 20:02:00,76.0,72.0,29.24,ENE,66,3.0,7.0,88,0.00,,,0.02,,2013-01-09 01:02:00,
2013-01-08 20:12:00,76.0,72.0,29.24,ENE,66,3.0,7.0,88,0.00,,,0.02,,2013-01-09 01:12:00,
2013-01-08 20:22:00,76.0,72.0,29.24,ENE,66,3.0,7.0,88,0.00,,,0.02,,2013-01-09 01:22:00,
2013-01-08 20:33:00,76.0,73.0,29.24,NE,56,6.0,13.0,89,0.00,,,0.02,,2013-01-09 01:33:00,
2013-01-08 20:42:00,76.0,73.0,29.24,NE,56,6.0,13.0,89,0.00,,,0.02,,2013-01-09 01:42:00,
2013-01-08 20:53:00,76.0,73.0,29.24,NE,56,6.0,13.0,89,0.00,,,0.02,,2013-01-09 01:53:00,
2013-01-08 21:02:00,76.0,72.0,29.24,ENE,69,8.0,15.0,88,0.00,,,0.02,,2013-01-09 02:02:00,
2013-01-08 21:12:00,76.0,72.0,29.24,ENE,69,8.0,15.0,88,0.00,,,0.02,,2013-01-09 02:12:00,
2013-01-08 21:23:00,76.0,72.0,29.24,ENE,69,8.0,15.0,88,0.00,,,0.02,,2013-01-09 02:23:00,
2013-01-08 21:33:00,76.0,72.0,29.24,East,94,7.0,15.0,88,0.00,,,0.02,,2013-01-09 02:33:00,
2013-01-08 21:43:00,76.0,72.0,29.24,East,94,7.0,15.0,88,0.00,,,0.02,,2013-01-09 02:43:00,
2013-01-08 21:53:00,76.0,72.0,29.24,East,94,7.0,15.0,88,0.00,,,0.02,,2013-01-09 02:53:00,
2013-01-08 22:03:00,76.0,72.0,29.24,East,99,9.0,15.0,87,0.00,,,0.02,,2013-01-09 03:03:00,
2013-01-08 22:12:00,76.0,72.0,29.24,East,99,9.0,15.0,87,0.00,,,0.02,,2013-01-09 03:12:00,
2013-01-08 22:22:00,76.0,72.0,29.24,East,99,9.0,15.0,87,0.00,,,0.02,,2013-01-09 03:22:00,
2013-01-08 22:33:00,76.0,72.0,29.24,ENE,78,8.0,15.0,87,0.00,,,0.02,,2013-01-09 03:33:00,
2013-01-08 22:43:00,76.0,72.0,29.24,ENE,78,8.0,15.0,87,0.00,,,0.02,,2013-01-09 03:43:00,
2013-01-08 22:53:00,76.0,72.0,29.24,ENE,78,8.0,15.0,87,0.00,,,0.02,,2013-01-09 03:53:00,
2013-01-08 23:02:00,76.0,72.0,29.24,East,83,7.0,13.0,86,0.00,,,0.02,,2013-01-09 04:02:00,
2013-01-08 23:12:00,76.0,72.0,29.24,East,83,7.0,13.0,86,0.00,,,0.02,,2013-01-09 04:12:00,
2013-01-08 23:22:00,76.0,72.0,29.24,East,83,7.0,13.0,86,0.00,,,0.02,,2013-01-09 04:22:00,
2013-01-08 23:33:00,76.0,71.0,29.24,East,82,7.0,13.0,85,0.00,,,0.02,,2013-01-09 04:33:00,
2013-01-08 23:42:00,76.0,71.0,29.24,East,82,7.0,13.0,85,0.00,,,0.02,,2013-01-09 04:42:00,
2013-01-08 23:53:00,76.0,71.0,29.24,East,82,7.0,13.0,85,0.00,,,0.02,,2013-01-09 04:53:00,